Regional Weather Roundup
Issued by NWS

Home | Current Version | Previous Version | Text Only | Print | Product List | Glossary Off
Versions: 1 2 3 4 5 6 7 8 9 10 11 12 13 14 15 16 17 18 19 20 21 22 23 24 25 26 27 28 29 30 31 32 33 34 35 36 37 38 39 40 41 42 43 44 45 46 47 48 49 50

000
ASUS43 KLOT 251003
RWRIL

ILLINOIS REGIONAL WEATHER ROUNDUP
NATIONAL WEATHER SERVICE CHICAGO/ROMEOVILLE IL
500 AM CDT TUE APR 25 2017

NOTE: "FAIR" INDICATES FEW OR NO CLOUDS BELOW 12,000 FEET WITH NO
SIGNIFICANT WEATHER AND/OR OBSTRUCTIONS TO VISIBILITY.

* THESE STATIONS ARE NOT UNDER NWS QUALITY CONTROL. THEY ALSO MAY NOT
  REPORT WEATHER SUCH AS PRECIPITATION OR FOG.

ILZ001-002-007-009-015-016-024-251100-
NORTHWEST ILLINOIS

CITY           SKY/WX    TMP DP  RH WIND       PRES   REMARKS
MOLINE         PTCLDY    54  34  46 S10       29.62S
STERLING*      CLOUDY    50  39  66 E5        29.66F
SAVANNA*       MOCLDY    51  36  56 CALM      29.63F
$$

ILZ003-004-008-010-011-017-018-251100-
NORTH CENTRAL ILLINOIS

CITY           SKY/WX    TMP DP  RH WIND       PRES   REMARKS
ROCKFORD       PTCLDY    54  40  59 SE9       29.70R
FREEPORT*      MOCLDY    51  39  63 SE7       29.67F
ROCHELLE*      PTCLDY    50  40  68 SE8       29.68S
DE KALB*       CLOUDY    52  43  71 SE10      29.70S
PERU*          PTCLDY    52  38  58 SE7       29.68S
$$

ILZ005-006-012>014-019>023-251100-
NORTHEAST ILLINOIS

CITY           SKY/WX    TMP DP  RH WIND       PRES   REMARKS
CHICAGO-OHARE  CLOUDY    55  46  71 SE10      29.70F
CHICAGO-MIDWAY PTCLDY    58  48  69 SE10      29.71F
AURORA         PTCLDY    51  44  77 SE7       29.70F
LANSING*       CLEAR     53  49  83 SE6       29.73F
JOLIET*        CLEAR     55  47  75 SE7       29.71S
WAUKEGAN       CLEAR     49  42  77 SE8       29.71F
DUPAGE AIRPORT PTCLDY    54  48  80 SE7       29.69F
KANKAKEE*      CLEAR     51  46  81 CALM      29.73F
WHEELING       CLEAR     50  43  77 SE3       29.72F
MORRIS*        PTCLDY    52  45  75 CALM      29.69F
NORTHERLY ISL    N/A     53  49  86 SE3         N/A
$$

LMZ740>746-251100-
SOUTHERN LAKE MICHIGAN

STATION/POSITION SKY/WX   TEMP    WIND        PRES    VSBY  WAVE
                          AIR SEA DIR/SP/G                  HT/PER
                          (F)     (DEG/KT/KT) (MB)    (MI)  (FT/S)
SOUTHERN BUOY              46 41  100/ 10/ 12 1007.9
HARRISON CRIB              53     160/  8/  9   N/A
BURNHAM HARBOR             54     110/  3/  5   N/A
CALUMET HARBOR             58     150/  8/ 10 1006.3S
BURNS HARBOR               58     150/  9/ 17 1008.1S
MICHIGAN CITY              56     130/ 12/ 14   N/A
ST. JOSEPH                 54 49  150/ 10/ 14 1008.3S         1
$$

ILZ025>027-034>036-040-047-049-050-058-095>099-251100-
WEST-CENTRAL ILLINOIS

CITY           SKY/WX    TMP DP  RH WIND       PRES   REMARKS
QUINCY         CLOUDY    55  41  59 SE6       29.63S
GALESBURG*     PTCLDY    54  38  55 SE8       29.63F
MACOMB*        MOCLDY    53  40  61 S9        29.65F
JACKSONVILLE*  PTCLDY    57  43  58 S7        29.67S
PITTSFIELD*    CLOUDY    56  46  66 S8        29.66S
$$

ILZ028>032-037-038-041>044-048-051>054-059>061-251100-
CENTRAL ILLINOIS

CITY           SKY/WX    TMP DP  RH WIND       PRES   REMARKS
PONTIAC        CLOUDY    49  43  78 SE9       29.70F
BLOOMINGTON    PTCLDY    48  37  65 S6        29.71S
DECATUR        PTCLDY    46  39  76 CALM      29.71S
PEORIA         CLOUDY    55  36  48 SE5       29.67F
LACON*         CLOUDY    51  36  57 SE5       29.67S
LINCOLN*       CLOUDY    49  38  65 S3        29.69S
SPRINGFIELD    CLOUDY    55  40  56 S9        29.69S
TAYLORVILLE    CLOUDY    51  40  66 S7        29.70F
$$

ILZ033-039-045-046-055>057-062-063-251100-
EAST-CENTRAL ILLINOIS

CITY           SKY/WX    TMP DP  RH WIND       PRES   REMARKS
CHAMPAIGN      MOCLDY    47  40  76 SE6       29.73S
RANTOUL*       PTCLDY    54  47  78 S6        29.73S
MATTOON        CLOUDY    51  46  83 S7        29.73R
PARIS*         CLEAR     53  50  89 SE6       29.75S
$$

ILZ079-100>102-251100-
SOUTHWEST ILLINOIS

CITY           SKY/WX    TMP DP  RH WIND       PRES   REMARKS
ALTON          CLOUDY    47  43  84 SE8       29.70S
BELLEVILLE     CLOUDY    48  48  99 CALM      29.69S
CAHOKIA*       PTCLDY    49  44  83 S5        29.69S
SPARTA*        PTCLDY    53  47  82 SE6       29.72S
$$

ILZ064>066-069>071-074>076-080>082-084>086-088>090-092>094-251100-
SOUTH-CENTRAL ILLINOIS

CITY           SKY/WX    TMP DP  RH WIND       PRES   REMARKS
CARBONDALE     CLOUDY    51  50  96 CALM      29.72S
CAIRO*         CLOUDY    56  55  95 S6        29.73F
EFFINGHAM*     CLEAR     46  45  95 CALM      29.75R
MARION         CLEAR     55  55 100 S5        29.73S
MT. VERNON     CLEAR     44  43  96 CALM      29.73S
CENTRALIA*     CLEAR     53  48  82 CALM      29.72S
SALEM*         CLEAR     56  48  73 CALM      29.72S
METROPOLIS*    CLEAR     55  54  95 S3        29.74F
$$

ILZ067-068-072-073-078-083-087-091-251100-
SOUTHEAST ILLINOIS

CITY           SKY/WX    TMP DP  RH WIND       PRES   REMARKS
LAWRENCEVILLE  CLEAR     53  51  93 E5        29.75R
FLORA*         CLEAR     48  46  92 CALM      29.73S
FAIRFIELD*     CLEAR     50  48  94 CALM      29.73R
HARRISBURG*    CLEAR     50  50  99 CALM      29.74S
ROBINSON*      CLEAR     50  49  95 CALM      29.76R
CARMI*         CLEAR     50  50  99 S3        29.74S
$$

ABBREVIATIONS USED IN REMARKS
   TC - TEMPERATURE IN CELSIUS
  WCI - WIND CHILL INDEX
   HX - HEAT INDEX
  VSB - VISIBILITY
$$





USA.gov is the U.S. government's official web portal to all federal, state and local government web resources and services.